Theta_e
316 318 324 323 334 338 343 341 337 337 333 333 334 337 346 347 342 339 342 344 342 334 331 341 343 343 340 339 340 339 337 333 331 330 329 328 328 328 328 328 328 328 328 328 327 326 326 326 326
317 325 323 323 334 342 341 336 338 335 333 333 334 338 347 351 344 342 345 344 340 331 337 343 341 339 339 341 338 335 330 326 329 328 328 327 327 327 327 327 327 326 326 326 325 324 324 324 324
325 324 319 326 328 332 337 334 333 335 334 336 341 345 348 348 341 339 344 343 339 334 340 342 337 338 340 339 334 328 325 328 327 327 327 326 326 326 325 324 323 324 324 324 322 320 320 321 323
324 318 318 324 323 324 331 331 333 338 338 335 345 349 344 343 341 345 344 342 335 338 340 339 336 338 339 334 327 322 325 327 326 326 325 326 325 324 322 322 323 323 320 319 317 317 316 315 319
321 316 318 318 322 319 321 326 332 337 340 340 345 349 346 342 343 344 343 338 337 338 338 335 337 339 336 329 321 322 326 326 327 325 325 324 324 321 321 321 320 318 318 313 310 308 304 306 309
322 316 317 315 313 313 315 317 330 332 338 340 346 346 345 342 344 344 340 338 337 337 337 339 339 338 332 323 319 322 326 326 325 324 323 323 320 319 318 314 312 307 307 305 306 306 307 306 309
324 322 318 316 314 312 312 314 323 333 335 340 343 349 345 341 343 341 339 339 338 336 339 340 338 334 327 317 316 320 325 321 314 309 307 307 307 307 305 305 305 306 308 308 309 309 309 308 313
322 323 323 321 320 315 312 313 317 330 331 337 342 349 349 341 343 340 340 340 338 338 339 338 337 330 321 315 312 311 310 310 308 306 310 311 308 306 307 309 309 310 310 310 310 309 309 309 310
321 323 322 321 319 317 314 320 317 319 333 342 340 343 342 341 341 339 339 339 340 340 340 338 331 324 316 312 311 310 309 307 309 312 313 312 310 311 311 311 311 311 311 311 310 310 310 312 312
320 320 322 319 317 316 318 322 322 325 333 342 343 342 341 342 341 339 339 340 341 340 339 336 327 319 313 311 310 309 309 309 312 313 312 311 312 312 312 311 311 311 311 310 310 310 310 313 312
319 322 320 320 320 319 320 321 320 322 332 339 342 333 341 341 341 339 339 339 340 339 335 329 323 319 311 311 313 313 312 312 311 312 311 312 312 312 312 312 311 311 311 311 310 311 311 313 313
321 320 320 320 319 320 318 319 320 321 326 334 333 332 331 341 341 339 338 339 340 339 335 325 321 318 316 315 314 312 312 311 311 311 312 312 312 312 312 312 311 311 311 311 311 311 311 311 314
320 319 320 320 319 319 319 318 319 318 319 331 330 329 335 340 340 339 339 340 340 337 325 320 319 316 316 316 315 312 312 311 311 312 312 312 312 313 313 312 311 310 311 311 311 312 312 311 311
318 319 319 319 318 318 320 319 317 317 316 318 338 332 333 340 339 338 339 339 339 331 324 321 318 316 316 316 314 313 312 312 311 311 312 312 311 312 313 312 311 311 312 311 312 311 311 311 310
318 320 320 320 318 318 318 320 317 314 315 318 324 337 339 340 339 338 338 339 338 329 324 321 318 317 316 315 314 312 312 312 312 311 312 311 311 312 313 313 311 312 313 311 312 311 310 310 308
321 320 321 319 319 319 318 320 317 315 314 315 316 336 338 338 338 337 337 338 335 328 324 321 320 317 316 315 314 313 312 312 312 311 311 311 310 312 313 313 311 313 313 311 310 310 310 311 309
321 323 321 319 319 320 319 320 317 315 315 314 315 334 333 334 331 336 336 337 336 328 324 322 321 317 316 314 314 312 312 312 312 312 311 311 310 312 312 312 311 313 313 310 310 309 310 311 307
319 320 318 321 320 319 320 319 317 316 316 315 312 321 335 333 329 325 337 337 336 328 324 322 320 318 316 315 313 313 312 312 312 312 312 310 310 311 313 312 311 312 311 311 309 306 310 309 308
319 319 317 316 319 319 318 319 318 316 315 315 318 320 333 334 335 336 336 337 336 330 324 321 319 317 316 315 314 313 312 311 311 312 312 311 311 312 312 312 311 311 311 310 308 306 306 309 308
317 316 316 316 318 319 316 316 316 315 314 315 317 321 329 332 335 337 335 335 334 325 322 320 318 317 316 315 314 314 313 312 312 312 312 312 312 312 311 311 310 308 309 308 306 306 306 308 308
319 317 318 317 318 316 316 315 313 313 313 313 314 321 329 332 336 332 329 325 322 320 320 320 317 317 316 317 318 316 315 313 313 312 312 312 311 310 309 308 308 307 307 305 306 306 307 307 307
319 318 318 318 317 316 315 318 311 312 312 312 312 322 328 330 331 331 329 326 322 320 319 318 317 318 317 318 319 317 315 314 313 313 312 311 310 308 307 306 305 305 304 304 305 305 305 306 306
317 318 318 317 315 316 316 312 311 310 312 311 310 323 327 328 332 330 326 325 325 322 319 318 320 324 325 322 321 318 317 316 315 313 312 310 308 305 304 304 303 303 303 303 303 303 304 304 305
317 316 314 315 314 316 317 313 313 311 312 311 314 326 328 332 333 330 329 328 327 322 322 322 323 322 322 323 321 319 316 315 314 313 310 308 306 304 304 303 303 302 302 302 302 302 303 303 303
317 314 314 323 317 320 316 314 315 312 315 311 316 326 329 331 328 325 324 323 324 324 323 321 320 319 319 319 318 317 316 314 313 311 310 308 306 304 303 302 302 302 302 301 301 301 302 302 302
315 315 313 318 317 315 314 316 316 313 314 314 315 327 329 329 329 325 322 319 320 321 323 324 321 319 319 318 318 316 314 313 313 310 308 306 305 303 302 302 302 301 301 301 301 301 301 301 300
314 314 313 315 313 310 315 317 315 313 314 313 315 325 328 328 327 323 318 316 316 317 318 319 319 318 318 317 315 313 313 311 308 306 306 305 302 302 302 301 301 301 300 300 300 299 299 299 298
311 310 313 310 317 319 312 317 315 311 314 313 315 323 325 326 323 320 317 315 315 316 318 318 317 316 315 314 313 311 309 308 306 305 303 302 301 301 301 300 300 300 299 299 298 298 297 297 296
311 310 311 311 311 314 313 311 312 314 312 313 314 319 322 319 318 316 315 313 314 314 314 314 314 313 312 312 309 307 305 304 303 303 302 301 301 301 300 300 299 298 297 296 295 294 295 294 293
309 311 310 312 313 309 308 310 309 312 313 312 311 319 317 316 315 314 314 313 313 313 313 312 312 310 308 306 305 304 303 302 302 301 301 301 301 300 299 298 297 296 294 293 292 292 293 293 290
Wind_Speed
13 7 13 4 2 2 4 6 3 9 5 3 3 7 10 5 2 4 23 25 33 33 30 28 24 21 18 18 17 14 13 12 12 13 13 13 12 12 12 12 12 12 12 12 12 12 12 12 12
12 12 3 0 4 5 5 6 7 17 2 3 8 6 7 3 1 13 17 33 35 33 32 27 23 22 20 17 15 13 12 12 13 13 13 13 12 12 13 12 12 12 12 12 13 13 13 13 12
12 8 2 4 4 10 4 5 13 9 5 2 5 7 4 2 4 8 30 36 36 32 32 27 23 22 21 17 14 13 13 14 13 13 12 12 12 12 12 12 12 13 13 13 13 13 13 13 13
7 5 3 3 6 5 6 7 2 3 3 4 5 8 3 6 5 22 37 34 34 29 29 25 24 22 19 17 14 13 14 14 13 13 12 12 12 12 12 12 13 13 13 13 13 14 13 13 13
3 1 2 4 5 7 6 13 2 3 2 1 3 5 3 4 21 38 36 35 35 29 28 26 24 21 18 16 14 14 14 14 13 13 13 12 12 12 12 13 13 13 14 14 14 14 15 16 16
3 1 1 5 6 6 12 11 6 6 5 4 6 8 6 7 35 34 32 37 33 32 29 26 24 21 18 16 15 14 15 14 14 13 13 12 12 12 13 13 14 15 16 16 17 17 19 19 17
2 1 4 5 5 7 10 10 6 13 8 6 14 8 4 4 26 35 35 36 33 33 31 27 24 20 18 15 15 15 15 13 12 12 12 12 12 14 15 15 16 18 19 20 21 19 17 17 17
0 2 3 3 5 8 9 6 7 7 11 2 7 7 7 14 30 31 39 37 35 34 31 29 25 21 19 17 14 13 13 12 13 14 16 15 15 15 15 17 16 18 19 19 19 19 17 15 14
2 3 2 4 5 6 10 10 5 9 7 4 4 4 13 30 27 30 32 33 35 33 31 28 25 21 19 17 15 14 13 14 15 15 13 11 12 13 14 15 16 17 16 16 17 18 18 16 13
1 1 4 6 8 11 12 5 9 8 3 3 4 9 31 32 27 24 27 27 30 30 33 29 26 22 19 18 16 15 16 16 14 13 11 10 12 11 12 13 13 13 14 15 16 16 16 15 15
2 3 8 12 9 9 10 7 7 9 4 3 9 4 16 28 17 17 22 26 29 33 30 30 26 21 20 20 18 15 13 13 12 11 9 8 9 10 10 10 10 10 12 14 14 14 15 14 16
4 6 9 9 13 12 12 9 9 1 4 5 12 13 11 23 14 15 23 25 28 29 28 32 27 24 21 18 16 15 15 13 13 11 10 8 9 9 9 9 10 10 11 12 13 13 14 13 12
8 4 9 7 9 11 12 11 6 12 7 3 14 20 19 17 18 15 24 29 29 29 33 32 28 24 22 20 17 16 15 13 13 12 10 7 7 8 8 8 8 10 11 12 13 12 13 13 12
3 4 8 5 9 6 9 14 5 7 8 11 10 14 17 22 23 21 24 26 27 28 33 32 26 24 23 20 19 17 15 13 12 11 9 7 7 8 8 8 9 11 12 12 13 13 11 12 10
6 5 6 6 6 6 6 15 5 10 5 11 9 10 19 24 26 23 29 28 31 31 33 30 27 25 22 23 19 18 14 13 12 11 9 8 8 9 8 8 9 10 10 11 11 11 11 10 12
2 2 4 5 6 5 7 18 14 8 4 11 8 7 10 15 15 24 31 28 33 34 35 32 28 26 24 23 22 18 15 14 12 11 9 7 7 7 7 8 8 9 8 10 10 11 12 12 15
1 4 4 7 6 5 6 11 6 8 2 9 13 8 10 9 7 11 25 30 33 37 37 34 30 27 25 23 21 19 16 13 13 11 8 7 7 7 7 6 7 6 6 9 10 11 11 13 16
2 5 5 5 3 7 14 18 14 16 9 9 12 8 11 14 13 21 22 29 33 35 38 34 31 27 25 22 21 20 18 16 12 11 9 8 7 8 7 6 7 6 6 8 9 11 10 12 15
6 5 6 6 8 1 9 15 15 13 9 7 8 8 7 11 11 30 27 27 32 36 38 35 33 30 28 25 22 20 19 17 15 12 9 9 9 9 7 6 5 5 6 7 9 9 10 12 15
7 7 7 7 8 4 9 11 16 12 12 7 8 8 8 6 19 24 20 30 29 35 42 37 35 32 28 25 20 17 16 13 13 11 10 6 7 9 8 5 5 5 4 5 8 10 9 8 13
3 5 3 7 8 6 5 8 8 11 11 10 12 8 6 11 14 13 12 16 27 31 39 38 37 34 29 24 20 21 14 16 11 10 11 9 6 7 9 7 5 5 5 5 7 7 9 9 9
3 5 3 9 6 3 2 5 7 9 10 10 10 7 8 8 10 13 15 10 13 26 38 39 38 31 27 23 21 21 18 15 11 11 12 12 8 8 7 7 5 5 5 5 5 6 7 6 7
6 2 5 6 6 4 4 1 7 6 9 11 10 9 8 9 11 13 14 25 12 12 34 38 32 31 27 25 24 22 15 14 13 16 15 13 13 10 8 7 5 5 5 5 4 5 6 6 6
3 5 4 2 1 2 6 5 6 4 10 8 5 8 8 8 10 9 19 26 30 29 16 26 33 31 27 23 20 20 10 16 24 22 17 13 12 10 8 7 5 5 5 4 5 6 6 6 7
1 4 3 1 2 5 6 2 10 8 2 8 8 9 11 13 11 10 13 18 25 30 30 21 21 20 24 24 19 15 18 23 21 19 17 15 13 10 8 7 6 4 4 4 5 6 5 7 7
5 4 4 3 2 5 4 5 6 5 2 2 2 10 12 14 11 8 7 11 14 20 31 30 21 21 20 23 23 20 25 23 22 20 20 18 13 10 8 7 5 4 3 5 6 6 6 7 8
2 4 4 2 2 2 3 7 8 4 5 5 8 6 12 15 12 10 9 12 14 17 14 22 27 25 22 21 20 19 21 24 25 22 19 16 12 11 9 7 5 4 3 4 5 6 7 9 8
4 2 3 2 2 4 5 5 5 6 7 5 6 3 8 14 11 12 10 13 14 16 19 18 21 23 21 24 28 25 23 22 22 21 19 17 14 11 9 7 5 3 3 4 6 7 7 8 10
3 3 5 2 4 4 3 6 5 7 7 5 5 5 11 12 10 8 8 13 20 19 20 22 24 29 28 25 25 25 23 22 21 20 17 15 13 10 8 6 3 1 3 6 6 7 8 8 11
4 6 6 4 5 2 2 6 1 0 3 4 6 8 9 13 12 12 12 13 16 20 23 24 29 29 28 27 26 25 24 21 19 18 16 13 12 8 6 2 1 2 4 5 7 9 8 9 14
Wind_Direction
303 283 304 292 90 147 214 243 253 279 329 205 42 113 118 64 121 174 131 150 149 148 149 142 145 137 134 132 133 128 123 118 108 100 95 90 85 79 76 73 70 65 61 57 54 51 48 45 42
313 311 208 176 158 209 233 231 245 246 260 170 95 108 60 75 64 113 112 147 152 147 146 148 149 140 135 129 133 130 125 118 110 105 100 94 88 82 79 75 69 64 60 55 50 47 45 42 39
318 297 89 166 202 212 203 222 228 255 226 246 106 52 82 161 106 128 140 145 148 146 149 150 146 140 136 133 136 132 124 117 110 105 100 95 90 85 79 75 69 63 57 53 49 46 44 42 39
299 339 330 209 226 234 227 256 326 210 333 340 110 72 69 204 113 134 146 146 143 147 153 149 143 143 140 135 137 130 124 118 113 108 102 96 91 84 78 73 69 64 57 51 47 44 42 43 43
298 49 246 268 242 282 257 259 232 256 221 263 97 126 71 352 134 138 143 139 142 151 153 146 147 147 143 139 137 131 126 121 116 109 103 97 92 83 78 73 68 61 55 51 47 44 48 49 54
346 104 301 252 284 262 271 247 218 223 234 182 79 112 166 147 141 147 142 144 150 149 148 150 151 152 144 142 138 133 128 125 119 112 105 98 89 81 75 70 66 61 55 52 50 57 54 52 58
248 41 249 297 271 275 250 259 225 227 201 227 136 129 150 191 158 146 142 150 150 149 151 150 151 149 146 143 140 134 130 127 122 112 103 95 84 78 69 66 66 62 61 60 57 53 48 53 63
302 244 254 280 290 287 260 327 282 234 227 119 134 154 170 184 166 138 144 147 146 152 155 153 154 152 148 145 142 136 130 124 118 109 98 87 76 68 65 63 64 58 57 56 54 50 44 47 63
313 239 277 251 265 267 321 343 315 273 204 127 177 154 153 163 159 131 136 138 144 155 157 157 153 152 150 143 138 132 126 120 115 108 102 92 77 68 59 57 57 53 50 54 50 48 43 45 60
159 223 241 250 271 304 309 331 313 338 196 61 70 55 139 153 159 148 148 146 147 152 158 158 155 153 151 143 135 126 119 116 110 109 107 92 77 70 59 57 57 54 53 53 49 48 43 45 48
239 214 265 285 295 320 306 321 335 340 349 341 152 348 156 149 169 161 156 153 151 158 156 157 154 150 151 144 136 134 128 127 121 120 108 104 92 79 66 59 54 62 60 56 51 52 44 48 45
238 251 265 285 297 302 302 301 325 49 348 224 169 169 281 156 178 170 159 158 154 154 159 159 156 149 148 145 138 137 135 138 137 130 124 119 103 94 78 65 56 64 62 58 50 54 46 49 47
239 262 286 312 328 311 319 299 281 299 292 20 148 168 191 193 169 171 156 156 153 153 152 155 157 153 151 154 150 145 147 149 146 134 129 136 122 96 82 66 53 60 61 56 46 49 49 43 42
294 285 276 275 300 295 307 303 333 281 330 326 190 197 184 199 182 161 154 152 153 155 158 158 161 156 155 159 152 151 153 155 157 149 136 125 114 102 84 69 53 58 55 50 46 40 42 40 36
288 313 296 252 248 262 1 300 221 272 312 294 282 202 193 196 179 175 161 156 155 157 162 159 162 160 153 150 153 152 154 153 147 137 127 120 105 99 87 71 55 54 49 49 46 40 37 34 31
259 347 305 282 237 269 122 266 273 296 345 280 270 178 176 242 177 183 170 156 156 157 162 162 164 162 156 154 152 154 150 150 142 137 134 121 109 103 92 79 65 59 47 39 40 34 31 26 13
300 288 243 302 217 257 180 269 303 278 278 278 275 192 197 191 193 190 182 170 162 163 167 165 166 165 161 155 153 148 148 146 145 141 136 123 110 108 94 74 71 66 48 41 37 35 29 20 9
278 303 285 255 284 211 252 265 271 276 297 300 258 243 194 192 192 209 176 175 169 168 171 164 163 164 162 153 147 145 146 143 142 144 137 142 119 108 95 81 80 73 54 41 36 39 48 26 7
256 257 289 289 267 318 245 250 259 263 267 294 265 264 200 169 187 191 186 170 168 171 168 164 162 164 162 156 155 154 143 143 140 138 141 141 126 126 117 107 80 82 70 37 31 42 45 35 19
280 285 294 297 323 223 285 263 260 255 260 254 266 252 216 174 187 202 169 179 172 163 164 162 161 159 159 157 150 157 152 149 152 156 151 146 137 138 131 129 109 91 72 54 43 37 49 44 29
266 260 302 302 300 284 262 283 276 274 238 247 271 253 195 183 168 169 157 157 154 150 156 160 155 154 154 149 145 142 139 139 142 150 149 141 150 143 134 135 123 110 85 57 50 50 46 32 40
279 189 281 301 334 256 76 286 289 262 234 224 242 251 214 160 153 156 144 142 149 154 151 157 153 154 154 156 148 149 150 154 158 167 159 147 141 141 133 131 125 112 96 77 59 50 52 41 33
243 200 237 266 285 318 287 91 263 261 245 232 230 226 192 162 168 179 183 165 189 181 158 159 158 159 164 166 158 161 173 170 165 186 165 157 150 138 131 120 111 102 87 72 52 47 45 33 22
319 292 283 177 172 322 262 166 268 256 238 245 228 200 175 145 171 157 138 163 169 174 193 165 164 165 167 162 163 158 171 176 170 162 163 154 128 125 126 118 109 76 65 54 46 35 33 24 10
148 19 356 21 346 235 236 320 242 254 331 224 201 189 160 151 142 144 134 141 145 152 176 162 156 157 164 156 147 157 165 176 173 166 160 149 145 137 127 119 103 77 55 36 33 32 33 14 3
209 169 154 261 240 271 323 266 260 300 169 119 20 199 154 154 140 150 125 123 140 157 163 168 166 163 161 160 159 167 174 168 163 169 160 154 153 137 124 114 101 85 51 39 26 19 19 8 356
326 191 191 222 247 45 252 283 304 309 300 40 24 173 157 163 151 137 128 126 134 141 133 144 154 166 162 159 149 161 160 154 146 148 150 148 142 132 126 121 110 87 53 34 11 10 358 347 348
186 301 36 355 292 297 283 272 244 306 283 342 51 99 129 156 143 132 139 143 160 160 151 149 153 147 152 155 152 155 157 156 152 148 145 142 140 131 127 113 100 80 35 360 350 350 348 340 340
137 257 221 209 163 212 289 272 215 255 265 229 149 126 131 129 116 126 129 139 149 149 149 150 149 150 152 151 150 149 147 146 144 139 139 137 132 133 125 119 111 26 357 350 350 347 340 337 335
173 220 179 141 270 252 172 272 249 277 9 190 173 143 131 129 139 127 130 134 134 138 142 141 146 145 145 148 149 144 143 142 138 133 133 132 130 125 120 116 79 10 354 347 336 331 321 318 324